Time,TemperatureF,DewpointF,PressureIn,WindDirection,WindDirectionDegrees,WindSpeedMPH,WindSpeedGustMPH,Humidity,HourlyPrecipIn,Conditions,Clouds,dailyrainin,SoftwareType,DateUTC
2013-08-10 00:01:00,61.0,57.0,30.03,North,0,0.0,-999.0,87,-99.99,,,-99.99,,2013-08-10 04:01:00,
2013-08-10 04:43:00,52.0,52.0,30.09,NNW,340,3.0,-999.0,100,-99.99,,,-99.99,,2013-08-10 08:43:00,
2013-08-10 05:42:00,52.0,52.0,30.10,North,0,0.0,-999.0,100,-99.99,,,-99.99,,2013-08-10 09:42:00,
2013-08-10 12:01:00,70.0,50.0,30.15,NNE,20,3.0,-999.0,49,-99.99,,,-99.99,,2013-08-10 16:01:00,
2013-08-10 12:11:00,70.0,50.0,30.15,NE,40,3.0,-999.0,49,-99.99,,,-99.99,,2013-08-10 16:11:00,
2013-08-10 12:32:00,70.0,50.0,30.15,North,0,0.0,-999.0,49,-99.99,,,-99.99,,2013-08-10 16:32:00,
2013-08-10 12:43:00,70.0,50.0,30.15,North,0,0.0,-999.0,49,-99.99,,,-99.99,,2013-08-10 16:43:00,
2013-08-10 12:53:00,72.0,52.0,30.15,NNW,340,3.0,-999.0,49,-99.99,,,-99.99,,2013-08-10 16:53:00,
2013-08-10 13:02:00,72.0,50.0,30.16,SSW,210,3.0,-999.0,46,-99.99,,,-99.99,,2013-08-10 17:02:00,
2013-08-10 13:33:00,73.0,52.0,30.15,North,360,5.0,-999.0,46,-99.99,,,-99.99,,2013-08-10 17:33:00,
2013-08-10 13:43:00,72.0,50.0,30.15,North,0,0.0,-999.0,46,-99.99,,,-99.99,,2013-08-10 17:43:00,
2013-08-10 14:01:00,73.0,52.0,30.14,West,280,8.0,-999.0,46,-99.99,,,-99.99,,2013-08-10 18:01:00,
2013-08-10 14:11:00,75.0,52.0,30.14,WSW,250,5.0,-999.0,43,-99.99,,,-99.99,,2013-08-10 18:11:00,
2013-08-10 14:32:00,75.0,52.0,30.14,NW,320,5.0,-999.0,43,-99.99,,,-99.99,,2013-08-10 18:32:00,
2013-08-10 14:43:00,73.0,52.0,30.14,NW,320,3.0,-999.0,46,-99.99,,,-99.99,,2013-08-10 18:43:00,
2013-08-10 15:01:00,75.0,52.0,30.13,WNW,300,6.0,-999.0,43,-99.99,,,-99.99,,2013-08-10 19:01:00,
2013-08-10 15:11:00,73.0,52.0,30.13,West,280,6.0,-999.0,46,-99.99,,,-99.99,,2013-08-10 19:11:00,
2013-08-10 15:43:00,75.0,52.0,30.13,West,270,6.0,-999.0,43,-99.99,,,-99.99,,2013-08-10 19:43:00,
2013-08-10 15:53:00,75.0,52.0,30.12,West,280,3.0,-999.0,43,-99.99,,,-99.99,,2013-08-10 19:53:00,
2013-08-10 16:02:00,75.0,52.0,30.12,North,0,0.0,-999.0,43,-99.99,,,-99.99,,2013-08-10 20:02:00,
2013-08-10 16:11:00,77.0,54.0,30.12,WSW,250,3.0,-999.0,44,-99.99,,,-99.99,,2013-08-10 20:11:00,
2013-08-10 16:22:00,73.0,52.0,30.12,West,260,5.0,-999.0,46,-99.99,,,-99.99,,2013-08-10 20:22:00,
2013-08-10 16:43:00,75.0,54.0,30.12,WSW,250,8.0,-999.0,46,-99.99,,,-99.99,,2013-08-10 20:43:00,
2013-08-10 16:52:00,75.0,54.0,30.12,West,260,9.0,-999.0,46,-99.99,,,-99.99,,2013-08-10 20:52:00,
2013-08-10 17:01:00,73.0,54.0,30.12,West,270,3.0,-999.0,49,-99.99,,,-99.99,,2013-08-10 21:01:00,
2013-08-10 17:11:00,73.0,55.0,30.12,West,280,5.0,-999.0,53,-99.99,,,-99.99,,2013-08-10 21:11:00,
2013-08-10 17:22:00,73.0,55.0,30.12,West,260,3.0,-999.0,53,-99.99,,,-99.99,,2013-08-10 21:22:00,
2013-08-10 17:32:00,73.0,55.0,30.12,West,270,6.0,-999.0,53,-99.99,,,-99.99,,2013-08-10 21:32:00,
2013-08-10 17:42:00,73.0,55.0,30.12,West,270,5.0,-999.0,53,-99.99,,,-99.99,,2013-08-10 21:42:00,
2013-08-10 17:52:00,73.0,55.0,30.11,North,0,0.0,-999.0,53,-99.99,,,-99.99,,2013-08-10 21:52:00,
2013-08-10 18:01:00,73.0,55.0,30.11,West,260,3.0,-999.0,53,-99.99,,,-99.99,,2013-08-10 22:01:00,
2013-08-10 18:11:00,73.0,55.0,30.11,North,0,0.0,-999.0,53,-99.99,,,-99.99,,2013-08-10 22:11:00,
2013-08-10 18:21:00,73.0,55.0,30.10,North,0,0.0,-999.0,53,-99.99,,,-99.99,,2013-08-10 22:21:00,
2013-08-10 18:32:00,75.0,54.0,30.10,West,260,3.0,-999.0,46,-99.99,,,-99.99,,2013-08-10 22:32:00,
2013-08-10 18:43:00,75.0,54.0,30.10,North,0,0.0,-999.0,46,-99.99,,,-99.99,,2013-08-10 22:43:00,
2013-08-10 18:52:00,73.0,54.0,30.10,WNW,300,3.0,-999.0,49,-99.99,,,-99.99,,2013-08-10 22:52:00,
2013-08-10 19:01:00,75.0,54.0,30.10,WNW,290,3.0,-999.0,46,-99.99,,,-99.99,,2013-08-10 23:01:00,
2013-08-10 19:11:00,73.0,52.0,30.09,North,0,0.0,-999.0,46,-99.99,,,-99.99,,2013-08-10 23:11:00,
2013-08-10 19:22:00,73.0,54.0,30.09,NW,320,5.0,-999.0,49,-99.99,,,-99.99,,2013-08-10 23:22:00,
2013-08-10 19:32:00,73.0,54.0,30.09,NW,310,5.0,-999.0,49,-99.99,,,-99.99,,2013-08-10 23:32:00,
2013-08-10 19:43:00,73.0,54.0,30.09,NW,320,5.0,-999.0,49,-99.99,,,-99.99,,2013-08-10 23:43:00,
2013-08-10 19:53:00,73.0,54.0,30.09,North,0,0.0,-999.0,49,-99.99,,,-99.99,,2013-08-10 23:53:00,
2013-08-10 20:01:00,73.0,55.0,30.09,WNW,300,3.0,-999.0,53,-99.99,,,-99.99,,2013-08-11 00:01:00,
2013-08-10 20:11:00,70.0,57.0,30.09,North,0,0.0,-999.0,64,-99.99,,,-99.99,,2013-08-11 00:11:00,
2013-08-10 20:21:00,68.0,57.0,30.09,North,0,0.0,-999.0,68,-99.99,,,-99.99,,2013-08-11 00:21:00,
2013-08-10 20:32:00,68.0,59.0,30.09,North,0,0.0,-999.0,72,-99.99,,,-99.99,,2013-08-11 00:32:00,
2013-08-10 20:42:00,66.0,59.0,30.09,North,0,0.0,-999.0,77,-99.99,,,-99.99,,2013-08-11 00:42:00,
2013-08-10 22:32:00,59.0,57.0,30.12,North,0,0.0,-999.0,93,-99.99,,,-99.99,,2013-08-11 02:32:00,
2013-08-10 23:32:00,57.0,55.0,30.11,North,0,0.0,-999.0,93,-99.99,,,-99.99,,2013-08-11 03:32:00,